TimeEDT,TemperatureF,Dew PointF,Humidity,Sea Level PressureIn,VisibilityMPH,Wind Direction,Wind SpeedMPH,Gust SpeedMPH,PrecipitationIn,Events,Conditions,WindDirDegrees,DateUTC
12:53 AM,64.9,63.0,93,30.10,10.0,ESE,3.5,-,N/A,,Overcast,110,2013-10-03 04:53:00
1:53 AM,64.9,63.0,93,30.09,10.0,Calm,Calm,-,N/A,,Overcast,0,2013-10-03 05:53:00
3:53 AM,64.0,62.1,93,30.07,9.0,Calm,Calm,-,N/A,,Overcast,0,2013-10-03 07:53:00
4:53 AM,64.9,63.0,93,30.07,10.0,NE,3.5,-,N/A,,Overcast,50,2013-10-03 08:53:00
5:53 AM,64.0,63.0,96,30.08,9.0,Calm,Calm,-,N/A,,Overcast,0,2013-10-03 09:53:00
6:53 AM,64.9,62.1,90,30.09,9.0,Calm,Calm,-,N/A,,Overcast,0,2013-10-03 10:53:00
7:53 AM,64.0,62.1,93,30.11,7.0,Calm,Calm,-,N/A,,Overcast,0,2013-10-03 11:53:00
8:53 AM,66.0,63.0,90,30.12,9.0,Calm,Calm,-,N/A,,Overcast,0,2013-10-03 12:53:00
9:53 AM,68.0,63.0,84,30.13,10.0,Calm,Calm,-,N/A,,Mostly Cloudy,0,2013-10-03 13:53:00
10:53 AM,72.0,64.0,76,30.13,10.0,Calm,Calm,-,N/A,,Mostly Cloudy,0,2013-10-03 14:53:00
11:53 AM,75.0,63.0,66,30.12,10.0,SSW,4.6,-,N/A,,Mostly Cloudy,210,2013-10-03 15:53:00
12:53 PM,75.9,62.1,62,30.11,10.0,WSW,5.8,-,N/A,,Mostly Cloudy,240,2013-10-03 16:53:00
1:53 PM,79.0,62.1,56,30.09,10.0,SW,8.1,-,N/A,,Mostly Cloudy,230,2013-10-03 17:53:00
2:53 PM,81.0,62.1,52,30.06,10.0,West,9.2,-,N/A,,Scattered Clouds,260,2013-10-03 18:53:00
3:53 PM,82.0,62.1,51,30.04,10.0,WSW,8.1,-,N/A,,Scattered Clouds,250,2013-10-03 19:53:00
4:53 PM,81.0,62.1,52,30.04,10.0,Variable,4.6,-,N/A,,Scattered Clouds,0,2013-10-03 20:53:00
5:53 PM,81.0,61.0,50,30.04,10.0,SW,5.8,-,N/A,,Scattered Clouds,230,2013-10-03 21:53:00
6:53 PM,77.0,62.1,60,30.04,10.0,SW,4.6,-,N/A,,Partly Cloudy,220,2013-10-03 22:53:00
7:53 PM,77.0,61.0,58,30.04,10.0,Calm,Calm,-,N/A,,Partly Cloudy,0,2013-10-03 23:53:00
8:53 PM,73.0,64.0,73,30.06,10.0,Calm,Calm,-,N/A,,Partly Cloudy,0,2013-10-04 00:53:00
9:53 PM,72.0,63.0,73,30.08,10.0,Calm,Calm,-,N/A,,Scattered Clouds,0,2013-10-04 01:53:00
10:53 PM,73.0,62.1,68,30.09,10.0,Calm,Calm,-,N/A,,Mostly Cloudy,0,2013-10-04 02:53:00